FW9243 Weather Reports


time (UTC)temp
F
wind
direction
speed
knots
gust
knots
rain 1hr
in
rain 24hr
in
rain mn
in
humidity
%
barometer
mb
20260503211901 54 321 1.7 1.7 0.00 0.02 0.02 88 1015.2
20260503211627 54 331 0.9 1.7 0.00 0.02 0.02 88 1015.1
20260503211535 53 321 0.9 1.7 0.00 0.89 0.89 100 1015.6
20260503210902 54 16 0.9 1.7 0.00 0.02 0.02 88 1015.1
20260503210402 54 331 0.9 0.9 0.00 0.02 0.02 87 1015.1
20260503210032 53 301 0.9 1.7 0.00 0.89 0.89 100 1015.4
20260503205902 54 28 0.9 0.9 0.00 0.02 0.02 87 1015.0
20260503205403 54 306 0.0 0.9 0.00 0.02 0.02 86 1014.9
20260503204902 54 1 0.9 1.7 0.00 0.02 0.02 86 1014.8
20260503204543 54 9 0.9 1.7 0.00 0.89 0.89 100 1015.2
20260503204403 54 324 0.9 1.7 0.00 0.02 0.02 86 1014.9
20260503204333 54 45 0.9 1.7 0.00 0.02 0.02 86 1014.8
20260503204056 54 1 0.0 1.7 0.00 0.02 0.02 86 1014.8
20260503203052 54 0 0.0 1.7 0.00 0.89 0.89 100 1015.1
20260503202902 54 331 0.9 1.7 0.00 0.02 0.02 86 1014.7
20260503202402 55 331 0.9 1.7 0.00 0.02 0.02 86 1014.7
20260503201902 55 178 0.0 0.9 0.00 0.02 0.02 86 1014.6
20260503201624 55 45 0.0 0.9 0.00 0.02 0.02 85 1014.6
20260503201539 54 0 0.0 1.7 0.00 0.89 0.89 100 1014.9
20260503201129 55 45 0.0 2.6 0.00 0.02 0.02 85 1014.4
20260503200359 55 20 0.9 2.6 0.00 0.02 0.02 85 1014.3
20260503200036 55 325 0.9 0.9 0.00 0.89 0.89 100 1014.7
20260503195849 55 269 0.9 1.7 0.00 0.02 0.02 85 1014.3
20260503195558 55 344 0.0 1.7 0.00 0.02 0.02 85 1014.3
20260503194837 55 331 0.0 1.7 0.00 0.03 0.02 85 1014.3
20260503194600 55 320 0.9 1.7 0.00 0.03 0.02 84 1014.1
20260503194537 55 239 0.9 1.7 0.00 0.89 0.89 100 1014.6
20260503193835 55 314 0.9 3.5 0.00 0.03 0.02 84 1014.0
20260503193331 55 331 0.9 3.5 0.00 0.04 0.02 84 1014.0
20260503193056 56 296 0.9 2.6 0.00 0.04 0.02 84 1013.9
20260503193037 55 312 0.9 2.6 0.00 0.89 0.89 100 1014.3
20260503192331 56 320 1.7 2.6 0.00 0.06 0.02 84 1013.8
20260503191830 56 45 0.0 1.7 0.00 0.06 0.02 84 1013.9
20260503191538 55 0 0.9 2.6 0.00 0.89 0.89 100 1014.3
20260503191331 56 341 0.9 3.5 0.00 0.06 0.02 84 1013.8
20260503190830 56 279 0.9 3.5 0.00 0.07 0.02 83 1013.8
20260503190331 56 72 1.7 2.6 0.00 0.07 0.02 84 1013.6
20260503190039 56 0 0.9 2.6 0.00 0.89 0.89 100 1014.1
20260503185803 56 343 1.7 2.6 0.00 0.09 0.02 84 1013.6
20260503185304 56 327 0.9 2.6 0.00 0.14 0.02 83 1013.6
20260503184803 56 331 0.9 6.1 0.00 0.20 0.02 83 1013.5
20260503184749 56 351 2.6 6.1 0.00 0.23 0.02 83 1013.6
20260503184536 56 232 0.9 1.7 0.00 0.89 0.89 100 1014.1
20260503183804 56 329 0.9 2.6 0.00 0.25 0.02 83 1013.5
20260503183302 57 303 0.9 2.6 0.00 0.25 0.02 83 1013.5
20260503183036 56 34 1.7 3.5 0.00 0.89 0.89 100 1014.1
20260503182804 57 341 1.7 4.3 0.00 0.25 0.02 83 1013.6
20260503182304 57 296 1.7 5.2 0.00 0.25 0.02 82 1013.5
20260503181804 57 293 2.6 5.2 0.00 0.25 0.02 82 1013.5
20260503181535 58 316 2.6 7.0 0.00 0.89 0.89 100 1014.1
20260503181302 57 305 3.5 5.2 0.00 0.25 0.02 81 1013.5
20260503180804 57 250 0.9 5.2 0.00 0.25 0.02 81 1013.6
20260503180302 57 348 2.6 7.8 0.00 0.25 0.02 80 1013.5
20260503180045 58 314 0.9 3.5 0.00 0.89 0.89 99 1014.1
20260503175803 57 338 1.7 7.8 0.00 0.25 0.02 79 1013.4
20260503175304 58 331 2.6 5.2 0.00 0.25 0.02 77 1013.4
20260503175022 58 353 2.6 7.8 0.00 0.26 0.02 76 1013.5
20260503174539 58 298 3.5 7.0 0.00 0.89 0.89 95 1014.1
20260503174302 58 341 3.5 7.8 0.00 0.26 0.02 76 1013.4
20260503173803 59 275 3.5 7.8 0.00 0.26 0.02 77 1013.4
20260503173302 59 269 3.5 7.8 0.00 0.26 0.02 77 1013.3
20260503173039 58 336 2.6 4.3 0.89 0.89 0.89 77 1013.9
20260503173033 59 269 2.6 6.1 0.00 0.26 0.02 77 1013.3
20260503172304 59 331 2.6 7.8 0.00 0.26 0.02 78 1013.3
20260503171804 60 331 2.6 8.7 0.00 0.27 0.02 77 1013.2
20260503171543 59 289 3.5 4.3 0.89 0.89 0.89 96 1013.8
20260503171303 60 333 5.2 8.7 0.00 0.27 0.02 77 1013.3
20260503170803 60 329 1.7 4.3 0.00 0.28 0.02 77 1013.2
20260503170519 60 347 2.6 4.3 0.00 0.30 0.02 77 1013.2
20260503150803 58 45 1.7 6.1 0.00 0.44 0.02 80 1013.2
20260503150301 58 300 1.7 6.1 0.00 0.44 0.02 80 1013.3
20260503131302 57 32 1.7 2.6 0.00 0.44 0.02 93 1013.4
20260503130804 57 63 1.7 2.6 0.00 0.44 0.02 93 1013.5
20260503130302 56 66 0.9 1.7 0.00 0.44 0.02 93 1013.4
20260503110302 0 278 1.7 1.7 0.00 0.43 0.00 1013.8
20260503100214 0 0.0 0.0 0.00 0.43 0.00 1013.5
20260503090427 54 314 0.9 2.6 0.00 0.43 0.00 96 1013.5
20260503081537 55 0 0.0 0.9 0.00 0.00 0.00 100 1014.2
20260503081202 53 1 0.9 1.7 0.00 0.43 0.00 96 1013.6
20260503080703 53 54 0.9 2.6 0.00 0.43 0.00 96 1013.6
20260503080201 54 348 0.9 2.6 0.00 0.43 0.00 96 1013.6
20260503072703 54 206 0.9 1.7 0.00 0.43 0.00 95 1013.4
20260503072202 54 223 0.9 1.7 0.00 0.43 0.00 95 1013.4
20260503071703 54 216 0.9 1.7 0.00 0.43 0.00 95 1013.3
20260503071548 55 221 0.0 0.9 0.00 0.00 0.00 100 1013.9
20260503071203 54 45 0.9 0.9 0.00 0.43 0.00 95 1013.3
20260503070703 54 223 0.9 1.7 0.00 0.43 0.00 95 1013.3
20260503070201 54 45 0.9 1.7 0.00 0.43 0.00 95 1013.2
20260503060202 53 178 0.0 0.9 0.00 0.43 0.00 95 1012.9
20260503054704 53 223 0.0 0.9 0.00 0.43 0.00 95 1012.9
20260503054553 55 0 0.0 0.9 0.00 0.00 0.00 100 1013.4
20260503054202 53 45 0.0 0.9 0.00 0.43 0.00 95 1012.8
20260503053703 53 89 0.0 1.7 0.00 0.43 0.00 95 1012.7
20260503053203 53 152 0.9 1.7 0.00 0.43 0.00 95 1012.8
20260503053039 55 162 0.0 0.9 0.00 0.00 0.00 100 1013.3
20260503052703 53 63 0.0 1.7 0.00 0.43 0.00 95 1012.8
20260503052202 53 145 0.9 0.9 0.00 0.43 0.00 95 1012.8
20260503051704 53 178 0.0 0.9 0.00 0.43 0.00 95 1012.7
20260503051540 55 0 0.0 0.9 0.00 0.00 0.00 100 1013.3
20260503051202 53 223 0.0 0.9 0.00 0.43 0.00 95 1012.7
20260503050704 53 178 0.0 0.9 0.00 0.43 0.00 95 1012.7
20260503050202 53 206 0.0 0.9 0.00 0.43 0.00 95 1012.8
20260503050040 55 153 0.0 0.9 0.00 0.00 0.00 100 1013.3
20260503045703 53 178 0.9 0.9 0.00 0.43 0.00 95 1012.7
20260503045202 53 178 0.0 0.9 0.00 0.43 0.00 95 1012.7
20260503044704 53 45 0.0 0.9 0.00 0.43 0.00 95 1012.7
20260503044534 55 0 0.0 0.9 0.00 0.00 0.00 100 1013.2
20260503044202 54 206 0.0 0.9 0.00 0.43 0.00 95 1012.7
20260503043703 54 178 0.0 0.9 0.00 0.43 0.00 95 1012.7
20260503043201 54 178 0.0 0.9 0.00 0.43 0.00 95 1012.7
20260503043035 55 0 0.0 0.9 0.00 0.00 0.00 100 1013.3
20260503042704 54 178 0.0 0.9 0.00 0.43 0.00 95 1012.8
20260503042202 54 223 0.0 0.9 0.00 0.43 0.00 95 1012.7
20260503041926 54 152 0.9 0.9 0.00 0.43 0.00 95 1012.7
20260503041539 55 153 0.0 0.9 0.00 0.00 0.00 100 1013.3
20260503041202 54 178 0.0 0.9 0.00 0.43 0.00 95 1012.8
20260503040703 54 178 0.9 0.9 0.00 0.43 0.00 95 1012.8
20260503040203 54 241 0.0 1.7 0.00 0.43 0.00 95 1012.8
20260503040051 55 0 0.0 0.9 0.00 0.00 0.00 100 1013.4
20260503035703 54 45 0.0 1.7 0.00 0.43 0.00 95 1012.8
20260503035202 54 219 0.9 1.7 0.00 0.43 0.00 95 1012.9
20260503034704 54 178 0.0 0.9 0.00 0.43 0.00 95 1012.9
20260503034539 55 0 0.0 0.9 0.00 0.00 0.00 100 1013.5
20260503034202 54 223 0.9 0.9 0.00 0.43 0.00 95 1013.0
20260503033703 54 223 0.9 0.9 0.00 0.43 0.00 95 1013.0
20260503033202 54 269 0.9 0.9 0.00 0.43 0.00 95 1013.0
20260503033039 55 196 0.0 0.9 0.00 0.00 0.00 100 1013.5
20260503032702 54 178 0.0 0.9 0.00 0.43 0.00 95 1013.1
20260503032423 54 223 0.0 0.9 0.00 0.43 0.00 95 1013.1
20260503031704 54 45 0.0 0.9 0.00 0.43 0.00 95 1013.1
20260503031535 55 0 0.0 0.9 0.00 0.00 0.00 100 1013.6
20260503031202 54 223 0.0 0.9 0.00 0.43 0.00 95 1013.0
20260503030923 54 45 0.0 0.9 0.00 0.43 0.00 95 1013.0
20260503030203 54 269 0.9 0.9 0.00 0.43 0.00 95 1013.0
20260503030045 55 196 0.0 0.9 0.00 0.00 0.00 100 1013.6
20260503025704 54 178 0.9 0.9 0.00 0.43 0.00 95 1013.0
20260503025427 54 45 0.0 0.9 0.00 0.43 0.00 95 1013.1
20260503024704 54 223 0.0 0.9 0.00 0.43 0.00 95 1013.1
20260503024540 55 221 0.0 0.9 0.00 0.00 0.00 100 1013.7
20260503024202 54 206 0.0 0.9 0.00 0.43 0.00 95 1013.1
20260503023704 54 178 0.0 0.9 0.00 0.43 0.00 95 1013.1
20260503023427 54 223 0.0 0.9 0.00 0.43 0.00 95 1013.2
20260503023039 55 0 0.0 0.9 0.00 0.00 0.00 100 1013.7
20260503022704 54 178 0.0 0.9 0.00 0.43 0.00 95 1013.2
20260503022427 54 213 0.9 0.9 0.00 0.43 0.00 95 1013.2
20260503021704 54 45 0.0 0.9 0.00 0.43 0.00 95 1013.2
20260503021539 55 0 0.0 0.0 0.00 0.00 0.00 100 1013.8
20260503021427 54 241 0.0 0.9 0.00 0.43 0.00 95 1013.2
20260503020704 54 223 0.0 0.9 0.00 0.43 0.00 95 1013.3
20260503020202 54 178 0.0 0.9 0.00 0.43 0.00 95 1013.2
20260503020037 55 0 0.0 0.9 0.00 0.00 0.00 100 1013.9
20260503015703 54 250 0.0 0.9 0.00 0.43 0.00 95 1013.4
20260503015202 54 296 0.9 0.9 0.00 0.43 0.00 95 1013.3
20260503014704 54 269 0.0 1.7 0.00 0.43 0.00 95 1013.4
20260503014540 55 0 0.0 0.9 0.00 0.00 0.00 100 1014.0
20260503014422 54 269 0.9 1.7 0.00 0.43 0.00 95 1013.4
20260503013704 54 206 0.0 0.9 0.00 0.43 0.00 95 1013.4
20260503013202 54 178 0.0 0.9 0.00 0.43 0.00 95 1013.5
20260503013038 55 221 0.0 0.9 0.00 0.00 0.00 100 1014.1
20260503012703 54 223 0.0 0.9 0.00 0.43 0.00 95 1013.6
20260503012202 54 206 0.0 0.9 0.00 0.43 0.00 95 1013.6
20260503011703 54 45 0.0 0.9 0.00 0.43 0.00 95 1013.6
20260503011535 55 0 0.0 0.9 0.00 0.00 0.00 100 1014.3
20260503011203 54 45 0.0 0.9 0.00 0.43 0.00 95 1013.8
20260503010704 54 223 0.0 0.9 0.00 0.43 0.00 95 1013.8
20260503010202 54 223 0.9 0.9 0.00 0.43 0.00 95 1013.9
20260503010038 55 0 0.0 0.9 0.00 0.00 0.00 100 1014.4
20260503005703 54 223 0.9 0.9 0.00 0.43 0.00 95 1014.0
20260503005202 54 223 0.0 0.9 0.00 0.43 0.00 95 1014.0
20260503004703 54 269 0.9 0.9 0.00 0.43 0.00 95 1014.1
20260503004537 55 0 0.0 0.9 0.00 0.00 0.00 100 1014.5
20260503004202 54 178 0.0 0.9 0.00 0.43 0.00 95 1014.0
20260503003931 54 223 0.0 0.9 0.00 0.43 0.00 95 1014.1
20260503003202 54 178 0.0 0.9 0.00 0.43 0.00 95 1014.1
20260503003036 55 0 0.0 0.9 0.00 0.00 0.00 100 1014.5
20260503002703 54 269 0.0 0.9 0.00 0.43 0.00 95 1014.1
20260503002203 54 178 0.0 0.9 0.00 0.43 0.00 95 1014.2
20260503001704 54 178 0.0 0.9 0.00 0.43 0.00 95 1014.3
20260503001551 55 0 0.0 0.9 0.00 0.00 0.00 100 1014.7
20260503001202 54 206 0.0 0.9 0.00 0.43 0.00 95 1014.3
20260503001143 54 152 0.0 0.9 0.00 0.43 0.00 95 1014.3
20260503000203 54 206 0.0 0.9 0.00 0.43 0.00 95 1014.4
20260503000035 55 221 0.0 0.9 0.00 0.00 0.00 100 1014.7
20260502235919 54 206 0.0 0.9 0.00 0.43 0.00 95 1014.4
20260502235902 54 197 0.0 0.9 0.00 0.43 0.00 95 1014.4
20260502234703 54 269 0.0 0.9 0.00 0.43 0.00 95 1014.4
20260502234543 55 0 0.0 0.9 0.00 0.00 0.00 100 1014.9
20260502234202 54 206 0.0 0.9 0.00 0.43 0.00 95 1014.4
20260502233930 54 45 0.0 0.9 0.00 0.43 0.00 95 1014.5
20260502233202 54 206 0.0 0.9 0.00 0.43 0.00 95 1014.5
20260502233042 55 51 0.0 1.7 0.00 0.00 0.00 100 1014.9
20260502232703 54 178 0.9 0.9 0.00 0.43 0.00 95 1014.5
20260502232425 54 145 0.9 0.9 0.00 0.43 0.00 95 1014.5
20260502231704 54 223 0.9 0.9 0.00 0.43 0.00 95 1014.5
20260502231538 55 0 0.0 0.9 0.00 0.00 0.00 100 1014.8
20260502231202 54 206 0.0 0.9 0.00 0.43 0.00 95 1014.5
20260502230703 54 45 0.0 0.9 0.00 0.43 0.00 95 1014.6
20260502230202 54 206 0.0 0.9 0.00 0.43 0.00 95 1014.5
20260502230036 55 0 0.0 0.9 0.00 0.00 0.00 100 1015.0
20260502225703 54 206 0.0 1.7 0.00 0.43 0.00 95 1014.6
20260502225202 54 178 0.9 1.7 0.00 0.43 0.00 95 1014.5
20260502224704 54 152 0.0 1.7 0.00 0.43 0.00 95 1014.6
20260502224535 55 0 0.0 0.9 0.00 0.00 0.00 100 1015.0
20260502224201 54 178 0.0 0.9 0.00 0.43 0.00 95 1014.7
20260502223929 54 197 0.0 0.9 0.00 0.43 0.00 95 1014.7
20260502223202 54 223 0.0 1.7 0.00 0.43 0.00 95 1014.7
20260502223042 55 0 0.0 0.9 0.00 0.00 0.00 100 1015.1
20260502222703 54 178 0.9 1.7 0.00 0.43 0.00 95 1014.7
20260502222202 54 223 0.9 1.7 0.00 0.43 0.00 95 1014.7
20260502221926 55 213 0.9 1.7 0.00 0.43 0.00 95 1014.6
20260502221542 55 0 0.0 1.7 0.00 0.00 0.00 100 1015.1
20260502221203 54 314 0.9 1.7 0.00 0.43 0.00 95 1014.6
20260502220704 55 117 0.9 1.7 0.00 0.43 0.00 95 1014.6
20260502220202 55 145 0.9 3.5 0.00 0.43 0.00 95 1014.6
20260502220038 55 162 0.9 2.6 0.00 0.00 0.00 100 1015.1
20260502215705 55 161 1.7 3.5 0.00 0.43 0.43 95 1014.8
20260502215202 55 157 1.7 2.6 0.00 0.43 0.43 95 1014.7
20260502214704 55 178 1.7 3.5 0.00 0.43 0.43 95 1014.7
20260502214534 55 169 0.9 3.5 0.00 0.00 0.00 100 1015.2
20260502214202 55 148 1.7 3.5 0.00 0.43 0.43 95 1014.8
20260502213704 55 165 1.7 3.5 0.00 0.43 0.43 95 1014.9
20260502213202 55 171 1.7 3.5 0.00 0.43 0.43 95 1014.8
20260502213152 55 161 1.7 3.5 0.00 0.43 0.43 95 1014.8
20260502213039 55 153 1.7 1.7 0.00 0.00 0.00 100 1015.2
20260502212203 55 157 1.7 3.5 0.00 0.43 0.43 95 1014.8